Flag for Germany Weather past 2 weeks in Braunschweig, Lower Saxony, Germany

Now
52 °F

Passing clouds.


Feels Like: 51 °F
Forecast: 51 / 65 °F
Wind: 5 mph from Southwest

Location: Celle Airport

Current Time: Sep 2, 2015 at 7:06:25 AM

Latest Report: Sep 2, 2015 at 5:20 AM


Visibility: N/A

Pressure: 29.98 "Hg

Humidity: 94%

Dew point: 50 °F

Location of BraunschweigLocation

Historic Weather in Braunschweig — Graph

°F

Braunschweig temperature yesterday

Maximum temperature yesterday: 72 °F (at 12:20 AM)
Minimum temperature yesterday: 55 °F (at 11:20 PM)
Average temperature yesterday: 65 °F

Past Weeks' High & Low Weather Summary

 TemperatureHumidityPressure
High90 °F (Aug 31, 5:20 PM)100% (Aug 18, 11:20 AM)30.30 "Hg (Aug 18, 11:20 AM)
Low48 °F (Aug 29, 5:20 AM)32% (Aug 21, 4:20 PM)29.59 "Hg (Aug 24, 7:20 PM)
Average65 °F75%29.99 "Hg
* Reported Aug 18 5:20 AM — Sep 2 5:20 AM, Braunschweig, Weather by CustomWeather, © 2015

Note: Actual official high and low records may vary slightly from our data, if they occured in-between our weather recording intervals... More about our weather records

Advertising

Braunschweig weather history for previous 24 hours

 ConditionsComfort  
Time TempWeatherWind HumidityBarometerVisibility
5:20 AM
Wed, Sep 2
52 °FPassing clouds.5 mph94%29.98 "HgN/A
4:20 AM52 °FPassing clouds.6 mph94%29.98 "HgN/A
3:20 AM52 °FPassing clouds.5 mph94%29.98 "HgN/A
2:20 AM54 °FPassing clouds.5 mph94%29.98 "HgN/A
1:20 AM54 °FPassing clouds.3 mph100%29.98 "HgN/A
12:20 AM55 °FPassing clouds.7 mph94%29.95 "HgN/A
11:20 PM
Tue, Sep 1
55 °FPassing clouds.7 mph94%29.95 "HgN/A
10:20 PM57 °FPassing clouds.6 mph94%29.95 "HgN/A
9:20 PM57 °FPassing clouds.6 mph94%29.92 "HgN/A
8:20 PM59 °FLight rain. Broken clouds.7 mph94%29.92 "HgN/A
7:20 PM61 °FBroken clouds.7 mph94%29.89 "HgN/A
6:20 PM59 °FLight rain. More clouds than sun.6 mph94%29.86 "HgN/A
5:20 PM61 °FLight rain. More clouds than sun.6 mph94%29.86 "HgN/A
4:20 PM61 °FLight rain. More clouds than sun.8 mph94%29.83 "Hg6 mi
3:20 PM63 °FLight rain. Mostly cloudy.8 mph88%29.83 "Hg6 mi
2:20 PM63 °FLight rain. Mostly cloudy.6 mph94%29.83 "Hg4 mi
1:20 PM63 °FLight rain. Mostly cloudy.7 mph94%29.80 "Hg6 mi
12:20 PM66 °FBroken clouds.10 mph78%29.77 "HgN/A
11:20 AM68 °FBroken clouds.6 mph73%29.77 "HgN/A
10:20 AM68 °FBroken clouds.16 mph73%29.77 "HgN/A
9:20 AM68 °FPartly sunny.12 mph73%29.77 "HgN/A
8:20 AM68 °FPartly sunny.15 mph73%29.77 "HgN/A
7:20 AM68 °FPassing clouds.5 mph83%29.74 "HgN/A
Weather by CustomWeather, © 2015

See weather overviewHow to use our weather pages